| time (UTC) | temp F | wind direction | speed knots | gust knots | rain 1hr in | rain 24hr in | rain mn in | humidity % | barometer mb |
| 20260507014531 | 80 | 275 | 5.2 | 10.4 | 0.00 | 0.00 | 0.00 | 74 | 1011.3 |
| 20260507013007 | 80 | 242 | 3.5 | 9.6 | 0.00 | 0.00 | 0.00 | 72 | 1011.1 |
| 20260507011553 | 80 | 294 | 6.1 | 10.4 | 0.00 | 0.00 | 0.00 | 72 | 1011.0 |
| 20260507010137 | 81 | 301 | 5.2 | 10.4 | 0.00 | 0.00 | 0.00 | 72 | 1010.9 |
| 20260507004512 | 81 | 268 | 5.2 | 12.2 | 0.00 | 0.00 | 0.00 | 72 | 1010.8 |
| 20260507003014 | 81 | 289 | 7.0 | 13.0 | 0.00 | 0.00 | 0.00 | 71 | 1010.8 |
| 20260507001602 | 82 | 287 | 7.8 | 13.0 | 0.00 | 0.00 | 0.00 | 69 | 1010.7 |
| 20260507000145 | 83 | 286 | 7.8 | 13.0 | 0.00 | 0.00 | 0.00 | 68 | 1010.6 |
| 20260506234542 | 82 | 269 | 6.1 | 13.9 | 0.00 | 0.00 | 0.00 | 68 | 1010.5 |
| 20260506233041 | 83 | 288 | 6.1 | 11.3 | 0.00 | 0.00 | 0.00 | 65 | 1010.5 |
| 20260506231537 | 84 | 266 | 7.0 | 12.2 | 0.00 | 0.00 | 0.00 | 65 | 1010.6 |
| 20260506230133 | 83 | 293 | 6.1 | 13.0 | 0.00 | 0.00 | 0.00 | 65 | 1010.6 |
| 20260506224556 | 84 | 269 | 7.0 | 12.2 | 0.00 | 0.00 | 0.00 | 59 | 1010.6 |
| 20260506223100 | 85 | 299 | 6.1 | 12.2 | 0.00 | 0.00 | 0.00 | 61 | 1010.7 |
| 20260506221547 | 85 | 273 | 6.1 | 10.4 | 0.00 | 0.00 | 0.00 | 62 | 1010.7 |
| 20260506220007 | 84 | 279 | 5.2 | 9.6 | 0.00 | 0.00 | 0.00 | 63 | 1010.9 |
| 20260506214609 | 85 | 268 | 5.2 | 13.9 | 0.00 | 0.00 | 0.00 | 61 | 1010.9 |
| 20260506214502 | 84 | 279 | 7.0 | 13.9 | 0.00 | 0.00 | 0.00 | 60 | 1010.8 |
| 20260506213056 | 85 | 246 | 5.2 | 12.2 | 0.00 | 0.00 | 0.00 | 63 | 1011.0 |
| 20260506211547 | 86 | 254 | 4.3 | 11.3 | 0.00 | 0.00 | 0.00 | 67 | 1011.0 |
| 20260506210138 | 85 | 248 | 6.1 | 9.6 | 0.00 | 0.00 | 0.00 | 66 | 1011.0 |
| 20260506204510 | 85 | 237 | 6.1 | 11.3 | 0.00 | 0.00 | 0.00 | 68 | 1011.2 |
| 20260506203100 | 85 | 315 | 6.1 | 10.4 | 0.00 | 0.00 | 0.00 | 67 | 1011.4 |
| 20260506203001 | 85 | 253 | 5.2 | 10.4 | 0.00 | 0.00 | 0.00 | 66 | 1011.5 |
| 20260506201548 | 85 | 255 | 5.2 | 11.3 | 0.00 | 0.00 | 0.00 | 66 | 1011.7 |
| 20260506200142 | 85 | 236 | 6.1 | 12.2 | 0.00 | 0.00 | 0.00 | 65 | 1011.8 |
| 20260506194541 | 85 | 233 | 6.1 | 10.4 | 0.00 | 0.00 | 0.00 | 63 | 1012.0 |
| 20260506193034 | 84 | 259 | 3.5 | 10.4 | 0.00 | 0.00 | 0.00 | 67 | 1012.1 |
| 20260506191515 | 83 | 224 | 6.1 | 11.3 | 0.00 | 0.00 | 0.00 | 68 | 1012.4 |
| 20260506190029 | 83 | 280 | 5.2 | 12.2 | 0.00 | 0.00 | 0.00 | 68 | 1012.6 |
| 20260506184516 | 83 | 213 | 6.1 | 9.6 | 0.00 | 0.00 | 0.00 | 69 | 1012.6 |
| 20260506183108 | 84 | 277 | 5.2 | 12.2 | 0.00 | 0.00 | 0.00 | 66 | 1012.5 |
| 20260506181547 | 84 | 288 | 4.3 | 9.6 | 0.00 | 0.00 | 0.00 | 63 | 1012.6 |
| 20260506180135 | 84 | 265 | 3.5 | 8.7 | 0.00 | 0.00 | 0.00 | 67 | 1012.7 |
| 20260506174507 | 83 | 242 | 4.3 | 8.7 | 0.00 | 0.00 | 0.00 | 70 | 1012.8 |
| 20260506173127 | 82 | 286 | 3.5 | 7.0 | 0.00 | 0.00 | 0.00 | 67 | 1012.8 |
| 20260506173002 | 82 | 289 | 4.3 | 8.7 | 0.00 | 0.00 | 0.00 | 67 | 1012.9 |
| 20260506171556 | 82 | 263 | 5.2 | 8.7 | 0.00 | 0.00 | 0.00 | 69 | 1012.9 |
| 20260506170028 | 82 | 272 | 3.5 | 9.6 | 0.00 | 0.00 | 0.00 | 67 | 1012.8 |
| 20260506164518 | 81 | 279 | 2.6 | 7.0 | 0.00 | 0.00 | 0.00 | 68 | 1012.7 |
| 20260506163009 | 81 | 233 | 4.3 | 7.0 | 0.00 | 0.00 | 0.00 | 70 | 1012.6 |
| 20260506161555 | 80 | 248 | 4.3 | 7.8 | 0.00 | 0.00 | 0.00 | 72 | 1012.6 |
| 20260506160143 | 80 | 271 | 3.5 | 7.8 | 0.00 | 0.00 | 0.00 | 73 | 1012.5 |
| 20260506154509 | 80 | 340 | 0.9 | 4.3 | 0.00 | 0.00 | 0.00 | 69 | 1012.5 |
| 20260506153006 | 78 | 319 | 1.7 | 5.2 | 0.00 | 0.00 | 0.00 | 72 | 1012.4 |
| 20260506151556 | 77 | 279 | 2.6 | 6.1 | 0.00 | 0.00 | 0.00 | 74 | 1012.4 |
| 20260506150146 | 76 | 306 | 0.9 | 2.6 | 0.00 | 0.00 | 0.00 | 77 | 1012.4 |
| 20260506144532 | 75 | 321 | 0.0 | 1.7 | 0.00 | 0.00 | 0.00 | 80 | 1012.4 |
| 20260506143101 | 74 | 10 | 0.0 | 1.7 | 0.00 | 0.00 | 0.00 | 82 | 1012.3 |
| 20260506143002 | 74 | 10 | 0.0 | 2.6 | 0.00 | 0.00 | 0.00 | 83 | 1012.3 |
| 20260506141550 | 73 | 13 | 0.9 | 2.6 | 0.00 | 0.00 | 0.00 | 85 | 1012.3 |
| 20260506140134 | 72 | 9 | 0.0 | 3.5 | 0.00 | 0.00 | 0.00 | 86 | 1012.3 |
| 20260506134515 | 72 | 347 | 0.9 | 2.6 | 0.00 | 0.00 | 0.00 | 87 | 1012.2 |
| 20260506133138 | 71 | 316 | 1.7 | 3.5 | 0.00 | 0.00 | 0.00 | 89 | 1012.2 |
| 20260506131559 | 70 | 330 | 0.9 | 3.5 | 0.00 | 0.00 | 0.00 | 90 | 1012.0 |
| 20260506130014 | 70 | 350 | 0.0 | 1.7 | 0.00 | 0.00 | 0.00 | 91 | 1011.7 |
| 20260506124504 | 69 | 350 | 0.9 | 2.6 | 0.00 | 0.00 | 0.00 | 91 | 1011.5 |
| 20260506123053 | 70 | 26 | 1.7 | 3.5 | 0.00 | 0.00 | 0.00 | 90 | 1011.5 |
| 20260506121556 | 70 | 24 | 0.9 | 3.5 | 0.00 | 0.00 | 0.00 | 90 | 1011.3 |
| 20260506120151 | 70 | 17 | 0.9 | 3.5 | 0.00 | 0.00 | 0.00 | 89 | 1011.3 |
| 20260506114607 | 70 | 11 | 0.0 | 0.0 | 0.00 | 0.00 | 0.00 | 88 | 1011.2 |
| 20260506113102 | 70 | 11 | 0.0 | 1.7 | 0.00 | 0.00 | 0.00 | 88 | 1011.2 |
| 20260506111548 | 70 | 11 | 0.9 | 2.6 | 0.00 | 0.00 | 0.00 | 88 | 1010.9 |
| 20260506110140 | 71 | 335 | 0.9 | 1.7 | 0.00 | 0.00 | 0.00 | 87 | 1010.9 |
| 20260506104555 | 71 | 309 | 0.9 | 1.7 | 0.00 | 0.00 | 0.00 | 86 | 1010.9 |
| 20260506103033 | 71 | 309 | 0.0 | 1.7 | 0.00 | 0.00 | 0.00 | 86 | 1011.0 |
| 20260506101505 | 71 | 309 | 0.0 | 0.0 | 0.00 | 0.00 | 0.00 | 86 | 1011.0 |
| 20260506100017 | 72 | 309 | 0.0 | 0.0 | 0.00 | 0.00 | 0.00 | 84 | 1010.9 |
| 20260506094603 | 72 | 309 | 0.0 | 0.0 | 0.00 | 0.00 | 0.00 | 85 | 1010.8 |
| 20260506093035 | 72 | 309 | 0.0 | 0.0 | 0.00 | 0.00 | 0.00 | 86 | 1010.8 |
| 20260506091600 | 72 | 309 | 0.0 | 0.0 | 0.00 | 0.00 | 0.00 | 84 | 1011.0 |
| 20260506091500 | 73 | 309 | 0.0 | 0.0 | 0.00 | 0.00 | 0.00 | 84 | 1011.1 |
| 20260506090005 | 73 | 309 | 0.0 | 0.0 | 0.00 | 0.00 | 0.00 | 86 | 1011.0 |
| 20260506084600 | 73 | 309 | 0.0 | 0.0 | 0.00 | 0.00 | 0.00 | 87 | 1011.2 |
| 20260506083037 | 73 | 309 | 0.0 | 1.7 | 0.00 | 0.00 | 0.00 | 88 | 1011.2 |
| 20260506081513 | 73 | 309 | 0.0 | 1.7 | 0.00 | 0.00 | 0.00 | 88 | 1011.2 |
| 20260506080152 | 73 | 309 | 0.0 | 0.0 | 0.00 | 0.00 | 0.00 | 88 | 1011.3 |
| 20260506073005 | 74 | 309 | 0.0 | 2.6 | 0.00 | 0.00 | 0.00 | 87 | 1011.5 |
| 20260506071555 | 74 | 309 | 0.0 | 1.7 | 0.00 | 0.00 | 0.00 | 86 | 1011.7 |
| 20260506070134 | 74 | 309 | 0.0 | 1.7 | 0.00 | 0.00 | 0.00 | 86 | 1011.7 |
| 20260506061545 | 74 | 286 | 0.0 | 2.6 | 0.00 | 0.00 | 0.00 | 83 | 1012.0 |
| 20260506044500 | 76 | 304 | 1.7 | 4.3 | 0.00 | 0.00 | 0.00 | 84 | 1011.7 |
| 20260506043057 | 77 | 288 | 3.5 | 10.4 | 0.00 | 0.00 | 0.00 | 84 | 1011.7 |
| 20260506041548 | 77 | 287 | 2.6 | 7.0 | 0.00 | 0.00 | 0.00 | 82 | 1011.5 |
| 20260506040136 | 77 | 313 | 2.6 | 7.0 | 0.00 | 0.00 | 0.00 | 82 | 1011.3 |
| 20260506034552 | 77 | 278 | 2.6 | 8.7 | 0.00 | 0.00 | 0.00 | 82 | 1011.3 |
| 20260506033028 | 77 | 242 | 4.3 | 8.7 | 0.00 | 0.00 | 0.00 | 83 | 1011.1 |
| 20260506031516 | 77 | 296 | 4.3 | 7.8 | 0.00 | 0.00 | 0.00 | 82 | 1011.0 |
| 20260506030015 | 77 | 288 | 3.5 | 7.8 | 0.00 | 0.00 | 0.00 | 82 | 1010.7 |
| 20260506024508 | 77 | 280 | 3.5 | 8.7 | 0.00 | 0.00 | 0.00 | 82 | 1010.6 |
| 20260506023058 | 78 | 273 | 2.6 | 7.8 | 0.00 | 0.00 | 0.00 | 81 | 1010.3 |
| 20260506021549 | 78 | 283 | 2.6 | 7.0 | 0.00 | 0.00 | 0.00 | 81 | 1010.2 |
| 20260506020133 | 78 | 265 | 3.5 | 8.7 | 0.00 | 0.00 | 0.00 | 80 | 1010.2 |